[[{"header":{"parameterUnit":"m.s-1","parameterCategory":1,"la1":30.2991,"la2":30.254,"lo1":-89.0895,"lo2":-89.0444,"dy":0.0017,"dx":0.0017,"nx":28,"ny":28,"refTime":"2024-04-15T09:00:00:Z","depth":0,"parameterNumber":2,"parameterNumberName":"U-component_of_WINDS"},"data":[0,0,0,0,0,0,0,0,0,0,0,0,0,0,0,0,0,0,0,0,0,0,0,0,0,0,0,0,0,0,0,0,0,0,0,0,0,0,0,0,0,0,0,0,0,0,0,0,0,0,0,0,0,0,0,0,0,0,-0.4827,-0.4827,0,-0.4773,-0.4772,-0.4771,-0.4757,-0.4757,-0.4757,-0.4758,-0.4697,-0.4696,-0.4694,0,0,0,0,0,0,0,0,0,0,0,0,0,-0.4916,-0.4914,-0.4828,-0.4827,-0.4826,-0.4773,-0.4772,-0.4771,-0.4757,-0.4757,-0.4757,-0.4758,-0.4698,-0.4696,-0.4693,0,0,0,0,0,0,0,0,0,0,0,0,0,-0.4871,-0.4914,-0.4828,-0.4813,-0.4811,-0.4773,-0.4772,-0.4771,-0.4756,-0.4757,-0.4757,-0.4758,-0.4699,-0.4696,-0.4693,-0.4665,0,0,-0.4684,-0.4683,0,0,0,0,0,0,0,0,-0.4873,-0.4868,-0.4815,-0.4813,-0.4811,-0.4772,-0.4781,-0.4735,-0.4756,-0.4777,-0.4758,-0.4758,-0.4722,-0.4717,-0.4705,-0.4662,-0.466,-0.4684,-0.4682,-0.4681,-0.468,0,0,0,0,0,0,0,-0.4877,-0.487,-0.4806,-0.4815,-0.4812,-0.4807,-0.4801,-0.4772,-0.4747,-0.4775,-0.4774,-0.4768,-0.4721,-0.4708,-0.4704,-0.4659,-0.4684,-0.4682,-0.468,-0.4679,-0.4589,-0.4589,0,0,0,0,0,0,-0.4883,-0.4873,-0.4807,-0.4804,-0.4844,-0.4805,-0.4799,-0.4784,-0.4747,-0.4742,-0.4767,-0.4767,-0.4713,-0.4707,-0.4702,-0.4666,-0.4681,-0.4678,-0.4677,-0.459,-0.4589,-0.4589,0,0,0,0,0,0,-0.4885,-0.4877,-0.481,-0.4838,-0.4829,-0.4803,-0.4787,-0.4783,-0.477,-0.4742,-0.4737,-0.476,-0.4713,-0.4706,-0.4675,-0.4664,-0.4677,-0.4675,-0.4591,-0.459,-0.4589,-0.4595,0,0,0,0,0,0,-0.4887,-0.4878,-0.4868,-0.4838,-0.4828,-0.4785,-0.4786,-0.4781,-0.4766,-0.4765,-0.4733,-0.4728,-0.4713,-0.4679,-0.4672,-0.466,-0.4672,-0.4592,-0.459,-0.4589,-0.4596,-0.4595,-0.4594,0,0,0,0,0,-0.4891,-0.4871,-0.4868,-0.486,-0.4815,-0.4784,-0.4778,-0.4762,-0.4765,-0.4754,-0.4736,-0.4729,-0.4666,-0.4676,-0.4668,-0.4655,-0.4592,-0.4591,-0.4589,-0.4597,-0.4595,-0.4594,0,0,0,0,0,0,-0.49,-0.4867,-0.4863,-0.4833,-0.4812,-0.4782,-0.4768,-0.4761,-0.4737,-0.4737,-0.4717,-0.471,-0.468,-0.4664,-0.4676,-0.4626,-0.4629,-0.4626,-0.4637,-0.4636,-0.4635,-0.4639,-0.467,0,0,0,0,0,-0.4899,-0.4878,-0.485,-0.4826,-0.4816,-0.4794,-0.478,-0.4769,-0.4746,-0.4736,-0.4715,-0.4691,-0.4666,-0.465,-0.4625,-0.4594,-0.4586,-0.4581,-0.458,-0.4579,-0.4576,-0.4558,-0.4555,-0.4584,-0.4584,-0.4584,0,0,-0.4895,-0.4875,-0.4863,-0.4828,-0.481,-0.4787,-0.4786,-0.4763,-0.4745,-0.4732,-0.4702,-0.4686,-0.4657,-0.4626,-0.4611,-0.4612,-0.4566,-0.4577,-0.4577,-0.4574,-0.4556,-0.4553,-0.4551,-0.4583,-0.4583,-0.4583,0,0,-0.4879,-0.4861,-0.484,-0.4822,-0.4796,-0.4781,-0.4776,-0.4747,-0.4736,-0.4705,-0.4695,-0.4673,-0.463,-0.4611,-0.4595,-0.457,-0.4563,-0.4563,-0.4556,-0.4539,-0.4536,-0.4534,-0.4525,-0.4522,-0.456,-0.456,-0.456,0,-0.4878,-0.4845,-0.483,-0.4807,-0.4791,-0.4779,-0.4757,-0.474,-0.4706,-0.4695,-0.4696,-0.4642,-0.4622,-0.4586,-0.458,-0.4568,-0.456,-0.4566,-0.4538,-0.4536,-0.4534,-0.4524,-0.4521,-0.456,-0.456,-0.456,-0.456,0,-0.4845,-0.4822,-0.4808,-0.4777,-0.476,-0.4737,-0.4717,-0.4701,-0.4692,-0.4677,-0.4645,-0.4621,-0.4591,-0.4581,-0.4572,-0.4543,-0.4544,-0.4542,-0.4545,-0.4531,-0.4522,-0.4519,-0.456,-0.456,-0.456,-0.456,0,0,-0.4833,-0.4794,-0.4789,-0.4774,-0.4744,-0.4725,-0.4701,-0.4673,-0.466,-0.4636,-0.4615,-0.4579,-0.4577,-0.4559,-0.4547,-0.4531,-0.4512,-0.4531,-0.453,-0.4528,-0.4479,-0.448,-0.4477,-0.4507,-0.4507,-0.4506,-0.4481,0,-0.4812,-0.4771,-0.4756,-0.4721,-0.47,-0.4688,-0.4667,-0.4645,-0.463,-0.4608,-0.4591,-0.4565,-0.4565,-0.4554,-0.4538,-0.4518,-0.4502,-0.452,-0.4486,-0.4485,-0.4494,-0.4472,-0.4474,-0.4451,-0.4477,-0.4477,-0.4476,0,-0.4782,-0.476,-0.4724,-0.4696,-0.4686,-0.4668,-0.4641,-0.462,-0.4595,-0.4585,-0.4565,-0.4554,-0.4527,-0.4532,-0.4494,-0.4506,-0.4491,-0.4479,-0.4478,-0.4474,-0.448,-0.4467,-0.4444,-0.444,-0.4471,-0.4471,-0.4471,0,-0.4777,-0.4737,-0.4711,-0.4699,-0.4665,-0.4653,-0.4638,-0.4613,-0.4597,-0.4572,-0.4561,-0.4534,-0.4518,-0.4496,-0.4478,-0.4483,-0.4441,-0.4444,-0.4431,-0.4431,-0.4423,-0.4424,-0.4396,-0.4413,-0.4413,-0.4413,-0.4414,0,-0.4755,-0.4733,-0.4708,-0.4691,-0.4666,-0.4649,-0.4624,-0.4608,-0.4586,-0.4565,-0.4552,-0.4532,-0.4509,-0.4485,-0.447,-0.4441,-0.4434,-0.4424,-0.442,-0.4425,-0.4426,-0.4415,-0.4416,-0.4413,-0.4413,-0.4413,-0.4413,0,-0.4745,-0.4727,-0.4697,-0.4668,-0.466,-0.4643,-0.4617,-0.46,-0.4584,-0.4558,-0.4551,-0.4525,-0.4497,-0.4476,-0.444,-0.4429,-0.4398,-0.4394,-0.4407,-0.4405,-0.4393,-0.4394,-0.4357,-0.4351,-0.4373,-0.4373,-0.4372,0,-0.4733,-0.4716,-0.4685,-0.4671,-0.4657,-0.4634,-0.4618,-0.4599,-0.4582,-0.4552,-0.4538,-0.4509,-0.4486,-0.4441,-0.4418,-0.439,-0.4385,-0.4374,-0.438,-0.4386,-0.4384,-0.4386,-0.4384,-0.4373,-0.4373,-0.4373,-0.4373,0,-0.4712,-0.4704,-0.4682,-0.4657,-0.4638,-0.4617,-0.4595,-0.4584,-0.4561,-0.4542,-0.4515,-0.4496,-0.4459,-0.443,-0.44,-0.4383,-0.4373,-0.4371,-0.4366,-0.4371,-0.4379,-0.4374,-0.4404,-0.4372,-0.4372,-0.4372,-0.4372,-0.4372,-0.47,-0.4685,-0.4661,-0.4636,-0.4618,-0.4598,-0.4581,-0.4563,-0.454,-0.4509,-0.4499,-0.447,-0.4444,-0.4402,-0.4384,-0.436,-0.436,-0.4353,-0.4351,-0.435,-0.435,-0.4383,-0.4354,-0.4354,-0.4354,-0.4354,-0.4354,0,-0.4679,-0.4663,-0.4641,-0.4612,-0.4592,-0.4587,-0.4562,-0.4546,-0.4521,-0.4498,-0.4475,-0.4442,-0.4414,-0.4389,-0.4359,-0.4345,-0.434,-0.4337,-0.4338,-0.4334,-0.4352,-0.4359,-0.4342,-0.4342,-0.4342,-0.4342,-0.4342,-0.4342,-0.4666,-0.464,-0.4628,-0.4592,-0.4576,-0.4548,-0.4535,-0.4516,-0.4497,-0.4462,-0.4439,-0.4423,-0.4399,-0.4367,-0.4341,-0.4334,-0.4323,-0.4322,-0.4314,-0.4332,-0.4333,-0.4335,-0.4341,-0.432,-0.432,-0.4298,-0.4298,-0.4298]},{"header":{"parameterUnit":"m.s-1","parameterCategory":1,"la1":30.2991,"la2":30.254,"lo1":-89.0895,"lo2":-89.0444,"dy":0.0017,"dx":0.0017,"nx":28,"ny":28,"refTime":"2024-04-15T09:00:00:Z","depth":0,"parameterNumber":3,"parameterNumberName":"V-component_of_WINDS"},"data":[0,0,0,0,0,0,0,0,0,0,0,0,0,0,0,0,0,0,0,0,0,0,0,0,0,0,0,0,0,0,0,0,0,0,0,0,0,0,0,0,0,0,0,0,0,0,0,0,0,0,0,0,0,0,0,0,0,0,2.0501,2.0501,0,2.0496,2.0496,2.0496,2.0408,2.0406,2.0404,2.0402,2.0396,2.0398,2.0399,0,0,0,0,0,0,0,0,0,0,0,0,0,2.0435,2.0436,2.0501,2.0501,2.0501,2.0496,2.0496,2.0496,2.0409,2.0406,2.0403,2.0401,2.0395,2.0397,2.04,0,0,0,0,0,0,0,0,0,0,0,0,0,2.045,2.0437,2.0501,2.0457,2.0453,2.0496,2.0496,2.0496,2.0409,2.0406,2.0403,2.04,2.0394,2.0397,2.04,2.0485,0,0,2.0409,2.041,0,0,0,0,0,0,0,0,2.0449,2.0453,2.0464,2.046,2.0456,2.045,2.047,2.0492,2.041,2.0426,2.0402,2.0398,2.0416,2.0417,2.0423,2.0485,2.0484,2.0409,2.0411,2.0412,2.0413,0,0,0,0,0,0,0,2.0448,2.0452,2.0499,2.0464,2.0459,2.0437,2.0436,2.0474,2.044,2.0424,2.0418,2.0419,2.0413,2.0421,2.0423,2.0484,2.0409,2.0411,2.0413,2.0414,2.0616,2.0619,0,0,0,0,0,0,2.0454,2.0452,2.05,2.0499,2.0444,2.0441,2.0439,2.0455,2.0439,2.0434,2.0422,2.0415,2.0418,2.0419,2.0422,2.0521,2.0412,2.0415,2.0416,2.0612,2.0617,2.0621,0,0,0,0,0,0,2.0452,2.0459,2.05,2.0474,2.0477,2.0446,2.0464,2.0457,2.0464,2.0437,2.0431,2.0436,2.0415,2.0418,2.047,2.052,2.0416,2.0419,2.0608,2.0614,2.0619,2.0721,0,0,0,0,0,0,2.0451,2.0459,2.0491,2.0475,2.0479,2.0549,2.0467,2.0459,2.0469,2.046,2.0449,2.0443,2.0413,2.0466,2.0473,2.0522,2.0421,2.0603,2.061,2.0617,2.0713,2.0729,2.0743,0,0,0,0,0,2.0449,2.0519,2.0493,2.0499,2.0519,2.0551,2.0554,2.0517,2.0474,2.0506,2.0489,2.0444,2.0513,2.0473,2.0479,2.053,2.06,2.0608,2.0616,2.0706,2.0726,2.0742,0,0,0,0,0,0,2.0541,2.0516,2.0487,2.0555,2.0556,2.0537,2.0576,2.0539,2.0552,2.0543,2.0497,2.0495,2.0555,2.0547,2.0502,2.0612,2.0549,2.0559,2.0615,2.0633,2.0648,2.0649,2.0423,0,0,0,0,0,2.0569,2.0598,2.0575,2.0637,2.0639,2.0608,2.062,2.0592,2.0592,2.0592,2.0578,2.0579,2.0601,2.0616,2.0635,2.0711,2.0707,2.0749,2.0764,2.0776,2.0786,2.0826,2.0845,2.0647,2.0647,2.0647,0,0,2.0628,2.0618,2.0639,2.0655,2.0653,2.0684,2.0609,2.0644,2.0667,2.0597,2.0646,2.0636,2.0634,2.0699,2.0726,2.0694,2.084,2.0787,2.0797,2.0799,2.0837,2.0855,2.0872,2.0653,2.0652,2.0651,0,0,2.075,2.0746,2.0797,2.0797,2.0794,2.0773,2.0786,2.0772,2.0763,2.0812,2.076,2.0786,2.0825,2.0826,2.0831,2.0956,2.0915,2.0963,2.1042,2.1082,2.1097,2.1111,2.1156,2.1173,2.0972,2.0972,2.0972,0,2.0823,2.0868,2.0828,2.0868,2.0877,2.0815,2.0867,2.0868,2.0873,2.088,2.0844,2.0892,2.0886,2.0951,2.0981,2.0987,2.1001,2.0964,2.1098,2.1111,2.1123,2.1166,2.1183,2.0978,2.0977,2.0977,2.0976,0,2.0958,2.099,2.1032,2.1039,2.1052,2.1098,2.1065,2.1083,2.1054,2.1037,2.1087,2.1078,2.1094,2.1107,2.1079,2.1168,2.1149,2.1106,2.1042,2.1149,2.1188,2.1204,2.0987,2.0984,2.0983,2.0981,0,0,2.1138,2.1123,2.1139,2.1142,2.1135,2.1159,2.1202,2.1218,2.1236,2.124,2.1276,2.131,2.1271,2.1278,2.1249,2.1284,2.1384,2.1237,2.1236,2.1266,2.1483,2.1516,2.1536,2.1357,2.136,2.1362,2.1484,0,2.1257,2.1331,2.1296,2.1373,2.1403,2.1346,2.1383,2.1383,2.1368,2.1391,2.1374,2.14,2.1346,2.135,2.1382,2.1365,2.1427,2.1356,2.139,2.1392,2.1393,2.1556,2.159,2.1705,2.1499,2.1501,2.1503,0,2.1406,2.1419,2.1499,2.1488,2.1499,2.1534,2.1546,2.1569,2.1568,2.1555,2.1563,2.1526,2.1567,2.1504,2.1561,2.1513,2.1525,2.1519,2.1522,2.1525,2.1455,2.1564,2.1741,2.1759,2.1527,2.1525,2.1523,0,2.1531,2.1567,2.162,2.1624,2.1613,2.1638,2.1635,2.163,2.1643,2.1654,2.1662,2.1677,2.1686,2.1699,2.1668,2.1624,2.173,2.1663,2.172,2.1721,2.1746,2.1745,2.1929,2.1752,2.1752,2.1752,2.1751,0,2.1668,2.172,2.1676,2.1709,2.1766,2.1726,2.1782,2.1772,2.1769,2.1799,2.175,2.1779,2.1735,2.176,2.1736,2.1787,2.1791,2.1782,2.1775,2.1787,2.1788,2.1794,2.1786,2.1756,2.1755,2.1754,2.1753,0,2.1817,2.179,2.1844,2.1829,2.1827,2.1869,2.1856,2.1886,2.1867,2.1906,2.1913,2.1884,2.1911,2.1881,2.1905,2.1889,2.1959,2.1939,2.196,2.1954,2.2014,2.2009,2.2209,2.2233,2.2041,2.2042,2.2044,0,2.1906,2.1945,2.1935,2.1952,2.1951,2.1979,2.1991,2.1953,2.1969,2.1971,2.2001,2.2024,2.204,2.2085,2.2067,2.2085,2.2067,2.2136,2.2069,2.2081,2.2069,2.2068,2.2072,2.2149,2.2152,2.2154,2.2155,0,2.2069,2.2054,2.2075,2.2091,2.2108,2.2119,2.2126,2.2143,2.2104,2.2123,2.2151,2.2163,2.2189,2.2212,2.2225,2.2221,2.2183,2.2176,2.2191,2.2204,2.2214,2.221,2.1997,2.2172,2.217,2.2169,2.2168,2.2167,2.2191,2.2223,2.2222,2.2247,2.2248,2.2256,2.2284,2.227,2.2292,2.231,2.2286,2.232,2.2319,2.2333,2.2334,2.236,2.233,2.2351,2.2356,2.2362,2.2372,2.2209,2.2362,2.2361,2.2361,2.236,2.236,0,2.2352,2.2348,2.2372,2.2384,2.2404,2.2366,2.2372,2.2391,2.2422,2.2424,2.2442,2.2473,2.2496,2.248,2.2499,2.2523,2.2506,2.253,2.2528,2.2528,2.2396,2.2382,2.2543,2.2543,2.2543,2.2543,2.2543,2.2543,2.2438,2.2491,2.2476,2.2529,2.2524,2.2558,2.2565,2.2573,2.2574,2.2612,2.2631,2.2621,2.2616,2.2635,2.2654,2.2649,2.2658,2.2689,2.2678,2.2555,2.2537,2.252,2.2507,2.2691,2.2691,2.2807,2.2808,2.2809]}]]